ニート彗星

P/2001 T3 ( NEAT ) 2018

English version
Home page
Updated on July 8, 2017

---------------------------------------------------------------------

・ プロフィール

・ 軌道要素

Perturbed ephemeris below is based on elements from MPC 44504. 

 Epoch = 2458280.50000 TT   T = 2458280.76097 TT
 Peri. =  356.78292         a =     6.4468061 AU
 Node  =   55.16326 J2000.0 e =     0.6144835
 Incl. =   19.39755         q =     2.4853504 AU

・ 光度変化

        m1 = 3.5 + 5 logΔ + 30.0

---------------------------------------------------------------------

軌道要素はMinor Planet & Comet Ephemeris Serviceで計算したものです。
光度グラフはComet for Windowsで作成したものです。

---------------------------------------------------------------------

Copyright(C) Seiichi Yoshida (comet@aerith.net). All rights reserved.